Theta_e
311 319 322 321 321 322 325 326 328 331 334 327 320 325 318 317 323 317 314 312 314 312 310 312 311 309 307 308 309 310 308 310 316 311 311 311 303 302 304 303 303 302 302 302 302 303 301 301 300 300 302 303 305 308 310 311 311 312 312 311 310 310 310 311 312 313 314 314 316 318 320 320 320 321 321 321 321 321 321 320 318 319 320 320 321 321 321 320 320 322 325 328 330 331 334 334 335
315 321 321 321 322 322 326 330 331 328 329 324 318 321 314 317 321 315 316 313 314 311 311 313 312 312 309 310 308 308 308 308 314 310 307 305 302 303 303 303 303 302 302 302 302 302 301 301 300 300 301 303 307 309 310 311 311 311 311 310 310 309 310 311 312 313 313 314 316 318 319 320 320 320 320 319 320 321 320 319 318 318 319 320 320 320 320 320 320 321 323 326 328 330 332 333 333
319 321 321 322 322 323 332 335 333 329 326 324 321 318 313 318 318 313 314 311 312 311 311 312 312 314 309 310 308 307 310 308 308 307 304 303 303 304 303 304 303 303 303 302 303 302 302 301 300 300 300 304 307 309 310 311 311 311 311 310 310 310 309 310 311 312 313 315 316 318 319 319 319 318 318 318 319 320 319 319 319 318 319 319 319 319 319 319 319 319 321 324 327 327 328 330 331
320 322 320 321 327 330 337 335 334 334 327 326 322 317 316 318 315 311 311 310 310 310 311 311 311 312 308 310 308 306 310 307 305 305 304 303 304 304 303 304 303 303 303 302 303 302 302 301 300 300 301 303 307 309 310 311 311 310 310 310 310 310 310 310 310 311 313 315 316 318 319 318 318 318 318 318 319 319 319 318 318 318 318 318 317 318 318 318 319 319 320 322 325 326 326 328 330
319 320 319 320 329 331 331 327 332 334 324 326 321 313 314 313 312 310 309 309 309 309 310 310 312 310 307 309 307 308 310 307 304 304 304 304 304 304 304 304 304 303 303 303 303 303 302 301 300 300 301 302 306 309 310 311 310 310 310 310 310 309 309 309 310 312 313 314 315 316 317 318 317 318 318 318 318 318 318 318 317 317 316 317 316 316 318 318 318 319 320 321 323 326 326 326 329
318 318 320 321 321 322 328 324 324 324 317 322 319 311 311 310 310 310 308 308 307 309 308 308 310 308 308 309 306 308 308 306 305 304 304 304 304 304 304 304 304 303 303 303 303 303 302 301 300 301 300 302 306 308 309 310 310 310 310 310 310 309 309 309 310 312 312 313 314 315 315 317 316 316 318 317 317 317 317 316 315 315 315 316 315 315 317 318 317 318 320 321 322 324 326 325 327
318 320 324 326 321 320 327 324 319 318 312 313 315 310 310 309 309 309 308 307 308 307 307 308 308 307 309 309 307 306 305 305 305 305 304 304 304 304 304 304 304 303 303 303 303 303 303 301 300 301 300 301 304 307 308 309 309 309 309 310 309 309 309 310 311 311 311 312 313 314 313 315 315 316 317 316 316 315 314 314 314 314 314 315 314 314 315 317 317 317 319 320 321 323 325 325 325
319 322 326 330 326 323 326 322 317 318 312 309 311 311 310 309 308 310 308 308 309 307 308 308 307 308 310 308 308 307 303 304 305 304 304 304 304 304 305 304 304 304 303 303 303 303 304 303 302 301 300 301 303 305 307 307 307 308 308 309 308 308 309 310 310 309 310 310 311 312 313 315 316 316 316 315 315 314 314 314 314 314 314 313 313 314 315 316 316 317 318 319 321 322 323 324 324
318 319 324 328 324 324 324 317 312 313 311 308 309 311 312 309 307 310 308 307 307 307 309 309 307 309 309 307 308 306 304 305 304 304 304 305 305 304 304 304 304 304 304 304 304 304 304 304 304 303 301 300 301 302 303 303 305 306 307 308 307 308 309 308 307 307 308 308 310 310 312 315 315 315 315 314 314 313 313 313 313 313 313 313 313 313 314 315 315 316 317 318 320 321 322 323 324
320 320 322 326 327 322 317 314 313 311 308 309 307 308 310 306 306 308 307 306 306 308 308 307 306 307 307 307 309 306 305 305 304 304 304 305 304 304 304 304 305 305 305 305 304 304 304 304 304 303 302 301 300 300 300 301 302 304 306 306 307 308 307 306 305 305 306 307 308 309 311 314 314 313 314 313 312 312 312 311 311 311 312 312 312 313 313 313 314 315 315 317 319 320 320 321 323
327 326 326 327 325 319 319 319 315 311 307 308 306 307 308 306 307 306 307 306 306 308 307 305 306 307 307 307 311 307 304 305 304 305 305 304 304 304 305 305 305 306 306 306 305 305 304 304 304 304 303 302 300 300 300 299 300 301 303 305 306 306 305 304 303 304 305 306 306 308 310 312 313 312 313 312 311 311 311 310 310 310 311 311 312 312 312 312 313 314 314 316 318 320 320 320 321
326 329 335 330 321 318 323 322 315 312 307 306 306 307 308 306 307 306 307 307 306 308 307 307 307 307 307 309 310 306 304 304 304 305 305 304 304 305 306 306 306 306 306 306 306 305 305 304 304 304 303 303 301 300 300 299 300 300 300 302 304 304 304 302 300 301 303 304 305 306 307 310 311 311 311 312 311 310 310 310 311 311 310 311 311 311 311 311 312 313 314 314 317 319 318 319 320
323 329 339 327 319 320 319 317 315 312 308 308 308 306 306 305 307 308 308 308 306 307 307 307 306 307 309 310 307 304 304 304 305 305 304 304 304 306 306 306 306 306 306 306 306 305 305 305 304 303 303 303 301 300 300 299 300 300 299 300 301 301 301 300 296 297 300 303 303 304 305 307 309 309 310 310 311 310 310 311 311 311 311 311 311 311 311 311 311 312 313 314 316 318 318 318 319
317 329 344 322 316 320 316 315 313 312 312 311 308 306 306 306 308 308 307 307 307 308 307 305 305 307 308 309 308 306 305 304 305 305 304 305 305 305 305 307 306 305 306 306 306 305 305 304 304 303 303 304 302 300 300 300 300 300 300 300 300 298 298 297 295 295 298 302 303 303 305 307 309 309 309 309 311 311 311 311 311 311 311 311 310 310 311 310 310 312 313 314 315 317 317 317 318
315 334 347 324 315 318 315 314 313 315 316 311 308 306 306 307 307 307 307 308 309 308 306 305 304 306 307 309 313 309 305 305 305 305 305 305 305 305 305 306 306 305 306 305 305 305 305 304 304 304 304 304 303 301 300 300 300 300 300 300 300 298 297 296 295 294 296 300 301 302 306 308 310 310 309 310 311 311 311 311 311 311 311 311 310 309 310 310 310 312 313 313 315 316 316 316 318
323 336 336 323 315 315 312 311 312 317 316 309 307 306 306 307 306 306 306 307 308 306 305 307 305 305 307 308 311 309 305 305 305 304 305 305 306 305 306 307 306 306 305 305 305 305 305 304 304 304 304 304 303 302 300 299 300 300 300 300 300 298 297 296 295 294 295 297 298 302 307 309 310 311 310 311 311 311 311 311 311 311 312 312 311 310 309 310 310 311 312 313 315 316 316 316 318
330 336 330 324 317 315 312 310 313 316 314 309 306 305 306 307 305 304 304 305 307 307 306 307 305 304 307 307 306 306 305 305 305 305 304 305 305 305 307 307 306 306 305 305 305 305 304 304 304 304 304 303 303 303 300 299 300 300 300 299 300 299 297 296 295 294 294 295 297 302 307 309 310 311 311 311 311 312 312 311 311 311 313 313 312 311 309 309 310 311 312 313 314 315 316 317 318
338 336 326 321 316 315 311 310 312 311 312 309 306 306 307 308 307 305 305 307 307 307 307 306 305 305 305 305 305 306 305 305 304 304 304 305 305 305 306 307 307 306 305 305 305 305 304 304 304 304 304 303 304 303 301 299 300 300 299 299 299 299 298 296 296 294 293 294 296 300 306 309 310 311 311 311 311 311 312 312 312 312 313 313 313 313 310 308 309 311 312 313 314 315 316 316 317
333 333 327 325 321 312 306 308 308 307 310 308 305 306 308 309 307 305 307 310 308 307 309 307 306 306 305 304 305 305 305 305 305 304 305 305 305 305 306 307 307 306 305 305 305 305 304 304 304 304 304 304 304 303 301 299 299 299 299 299 299 299 298 297 296 295 293 294 295 298 305 309 310 311 311 311 311 312 312 312 313 313 313 313 314 314 312 309 308 309 311 312 313 314 315 315 315
318 326 330 328 320 309 305 307 307 307 308 307 305 306 308 308 307 306 307 309 308 307 309 309 308 308 308 306 303 304 305 304 304 304 305 305 305 305 306 307 307 306 305 305 305 304 304 304 304 304 304 304 304 303 302 300 299 299 299 299 299 299 299 298 296 296 294 293 294 296 303 309 310 311 311 311 312 312 312 313 314 313 313 314 314 315 313 311 310 309 310 311 312 313 314 314 314
311 319 324 318 311 308 307 306 307 306 306 307 307 306 307 307 306 307 306 307 309 308 307 308 310 310 310 308 303 303 304 304 304 305 305 305 306 306 306 307 307 306 305 305 305 304 304 304 304 304 304 304 303 302 302 301 300 299 300 299 299 299 299 298 297 296 295 294 293 295 302 308 310 311 311 312 312 312 311 312 313 313 312 313 315 315 314 313 311 310 310 310 311 312 313 313 313
310 310 310 309 307 307 306 306 308 305 305 309 308 306 306 306 305 307 307 307 309 311 309 307 310 309 309 309 304 303 303 303 305 305 305 306 306 306 306 306 307 306 305 305 305 304 304 305 305 304 304 304 303 302 302 301 300 299 299 299 299 299 299 299 298 296 296 294 293 294 301 308 310 311 311 312 312 311 311 311 312 313 312 313 315 315 314 314 313 311 311 310 310 311 312 312 313
311 308 305 307 306 307 307 307 309 308 308 309 308 307 306 306 307 308 307 306 307 310 309 308 307 304 305 307 305 307 307 304 305 306 306 306 306 306 306 307 307 306 306 306 305 305 305 305 304 304 304 304 303 302 301 301 300 300 299 299 299 299 299 299 298 297 296 295 293 293 299 308 310 310 312 312 312 311 311 311 311 312 313 314 316 316 315 315 315 314 313 312 311 310 311 312 313
315 310 306 307 305 307 307 307 310 310 309 308 307 305 306 308 307 307 307 306 307 306 304 302 302 302 302 305 306 306 306 304 305 306 305 305 305 305 306 306 306 306 306 306 305 305 305 305 304 304 304 303 303 302 301 300 300 300 300 299 299 299 299 299 298 297 296 295 294 292 296 306 310 310 311 312 312 312 311 311 311 312 314 315 316 317 317 316 315 315 314 314 313 311 309 311 314
314 310 306 306 305 306 306 308 311 310 308 306 306 306 308 309 306 307 308 307 307 305 302 301 301 303 303 307 308 303 301 303 304 304 304 305 305 305 306 306 306 306 306 306 306 305 305 305 304 304 304 303 303 302 301 300 300 301 300 300 299 299 299 299 299 298 297 296 295 293 293 302 310 310 311 312 312 312 312 311 311 312 313 314 316 317 317 317 316 315 316 316 316 314 313 314 316
309 308 306 306 306 306 306 307 310 309 309 307 306 308 310 309 306 308 310 308 307 306 304 304 305 306 307 308 307 301 299 301 303 304 305 305 305 305 306 306 306 306 306 306 306 305 305 304 304 304 303 303 303 302 302 301 301 301 301 300 300 299 300 299 299 298 298 297 296 295 292 297 307 311 310 311 311 311 312 312 311 311 312 313 315 316 316 317 317 316 317 317 317 317 317 317 319
307 307 307 307 306 306 306 306 308 308 308 308 306 309 311 309 308 310 312 309 306 307 306 306 307 308 308 309 306 301 299 302 304 304 304 304 305 305 306 306 306 305 305 306 306 305 305 304 304 304 303 303 303 303 302 302 301 301 301 300 300 300 301 301 300 299 299 298 296 296 294 293 302 310 310 310 311 311 311 312 311 311 312 312 314 316 315 317 319 318 318 318 318 319 321 321 321
306 307 307 306 305 305 306 305 307 305 306 309 307 307 310 308 308 312 312 309 307 309 309 307 308 309 308 310 309 302 299 303 304 303 303 304 306 305 306 306 305 305 305 306 305 305 305 304 304 304 304 303 303 303 302 302 302 301 301 300 300 301 302 302 301 300 299 299 298 297 296 293 296 306 310 310 310 311 311 311 311 311 311 311 313 315 316 317 318 318 319 319 318 320 323 323 324
305 307 308 306 308 308 305 306 306 305 306 308 307 308 310 309 310 314 313 309 307 309 311 310 308 308 308 310 310 304 300 302 303 302 304 305 306 306 306 306 306 306 305 305 305 305 305 304 304 304 304 303 303 302 302 302 302 301 301 301 301 302 302 302 302 301 300 300 299 298 298 295 293 299 307 310 309 310 311 311 311 312 311 311 312 313 315 316 318 318 318 319 319 319 321 322 324
306 307 310 310 315 313 305 307 307 305 308 308 307 311 317 316 315 315 312 308 307 308 310 310 308 308 308 309 310 308 302 300 302 303 305 306 306 306 306 306 306 306 305 305 305 305 305 304 304 304 303 303 302 302 302 302 302 301 301 301 302 302 302 302 302 301 301 300 300 299 298 298 295 294 301 308 309 309 310 311 311 312 312 311 311 312 314 315 317 318 318 319 319 319 320 321 323
309 308 315 316 313 314 309 308 309 306 309 308 305 312 321 320 317 316 311 308 307 309 311 309 309 308 309 310 309 310 304 300 302 305 306 306 306 306 306 306 306 306 305 305 305 304 304 304 304 304 303 303 303 302 302 302 302 302 302 302 302 302 302 302 302 301 301 301 300 300 299 299 298 295 296 302 307 309 309 310 311 311 312 311 311 311 313 314 316 317 318 318 319 319 319 319 320
318 311 321 323 312 318 317 309 309 308 308 309 307 313 321 317 315 313 308 307 307 309 311 310 310 309 309 310 309 310 307 302 302 305 306 306 306 306 306 306 306 306 305 305 305 304 304 304 303 303 303 303 303 303 303 303 303 302 302 302 302 302 302 302 302 301 301 301 301 300 299 299 299 297 295 296 302 308 309 309 310 311 312 312 312 311 312 313 314 316 316 317 319 319 320 319 319
327 316 319 323 314 319 318 309 309 310 308 309 308 312 318 314 313 312 308 308 308 308 311 309 309 309 309 310 309 311 311 308 305 305 306 307 306 306 306 306 306 305 305 305 304 304 304 303 303 303 303 303 303 303 303 303 303 302 302 302 303 302 302 302 302 301 301 301 301 300 299 299 299 299 298 295 296 303 308 309 309 310 311 312 311 312 312 312 312 314 315 316 317 318 319 320 319
326 322 322 321 318 317 316 313 310 308 308 310 309 310 314 313 312 312 310 308 308 309 311 310 308 308 309 311 312 313 314 316 311 306 307 308 307 307 306 306 306 305 305 305 304 304 304 303 303 303 303 303 303 303 303 303 303 303 303 302 302 302 302 302 301 301 301 301 301 301 300 300 299 299 299 299 296 297 303 308 309 309 309 311 311 311 311 312 312 312 313 314 315 316 317 318 319
325 327 324 321 324 321 318 317 310 307 309 311 310 310 312 311 308 309 309 307 308 309 310 309 308 309 311 312 314 315 315 317 312 307 307 308 307 307 306 306 305 305 305 305 304 304 303 303 303 304 303 303 303 303 303 303 303 303 303 302 302 302 302 302 301 301 301 301 301 301 301 300 300 299 299 299 299 297 297 301 307 308 308 309 310 311 311 311 311 312 312 312 312 314 315 315 316
322 324 322 320 326 325 320 315 310 307 310 314 314 314 314 312 309 308 309 308 308 308 307 308 309 313 316 317 319 320 320 318 310 307 308 308 308 307 306 306 305 306 305 305 305 304 303 303 304 304 304 304 303 303 303 303 303 303 303 303 302 302 302 302 302 302 302 302 302 301 301 301 300 300 300 299 299 299 297 297 300 305 307 308 309 310 310 310 311 311 311 311 311 312 312 313 314
317 319 321 323 324 327 323 313 309 307 312 320 316 314 314 311 311 309 308 308 308 309 309 308 309 313 319 322 322 322 323 317 308 307 309 307 308 307 306 306 306 306 305 305 305 304 304 303 304 305 304 304 304 303 303 303 303 303 303 303 302 302 302 302 302 303 303 303 303 303 302 302 301 301 300 299 299 299 299 298 296 298 302 306 307 308 308 309 310 311 311 311 311 311 311 312 312
318 319 323 325 322 327 322 310 311 309 311 321 316 313 315 312 312 310 307 308 310 312 312 312 311 312 317 322 323 323 321 314 308 308 308 307 308 307 307 307 306 306 306 305 306 305 305 304 304 305 305 305 304 304 304 303 303 303 303 303 302 302 302 302 302 303 303 303 303 303 302 302 302 301 301 300 299 299 299 299 298 297 297 300 304 305 306 307 309 310 311 311 311 311 311 311 311
322 321 321 322 320 322 319 311 314 311 310 323 319 313 315 314 315 313 308 310 313 314 312 314 315 314 316 319 321 324 321 315 312 310 307 307 308 307 307 307 306 306 306 306 306 306 306 305 305 305 305 305 304 304 304 303 304 303 303 303 303 303 302 302 302 302 302 302 303 302 302 302 302 302 301 300 300 299 299 298 299 298 297 297 298 299 302 304 307 309 310 310 311 311 311 310 310
320 320 319 321 317 316 319 317 315 312 310 318 317 314 320 324 322 316 310 310 313 314 313 315 317 317 318 317 316 319 322 319 316 313 308 306 307 308 307 307 306 306 306 307 307 307 307 306 306 305 305 305 304 304 303 303 303 303 303 303 303 303 302 302 302 302 302 302 302 302 302 302 302 301 301 301 301 300 299 299 298 298 298 297 297 297 298 299 302 305 307 309 310 310 310 310 310
319 320 320 319 315 312 316 316 313 315 312 311 316 321 326 331 332 324 318 316 314 314 315 314 315 318 317 316 315 316 319 321 320 318 311 305 306 308 307 307 307 307 307 307 307 307 307 306 306 306 305 305 304 303 303 303 303 303 303 303 303 303 302 302 302 302 302 302 302 302 302 302 302 302 302 301 301 301 300 300 299 298 298 297 297 296 296 296 297 299 301 305 308 309 309 309 310
323 319 314 311 312 311 314 315 316 326 321 311 314 318 323 334 331 324 325 324 319 316 316 316 318 322 319 317 319 318 317 319 320 318 311 305 306 307 307 307 307 307 307 307 307 307 306 307 306 306 306 305 304 303 303 303 303 303 303 303 303 303 302 302 302 302 302 302 302 302 302 302 302 301 302 301 301 301 301 301 300 299 298 298 297 296 296 295 296 296 296 299 302 306 308 308 309
322 314 309 309 310 311 314 316 316 325 321 312 313 311 319 336 328 322 328 326 325 326 325 326 325 326 324 320 320 320 318 319 319 315 310 306 307 307 306 308 307 307 308 307 307 307 306 306 306 305 305 305 304 304 303 303 303 303 303 303 303 303 302 302 303 302 302 302 302 302 302 302 302 301 301 301 302 301 301 301 301 300 300 299 298 298 297 296 295 296 295 295 295 298 301 302 305
317 311 309 310 311 311 313 314 316 320 316 318 325 315 312 331 330 326 326 320 324 331 328 331 329 327 328 324 322 322 323 323 321 323 317 307 306 308 307 308 308 307 308 308 307 307 307 306 306 306 305 305 305 304 304 303 303 303 302 303 303 303 302 302 303 302 302 302 302 302 302 302 302 302 302 301 302 302 302 302 301 301 301 300 299 299 299 298 297 297 296 295 295 294 295 295 299
314 308 308 309 309 311 312 314 319 319 314 320 335 319 311 335 341 329 321 316 320 321 319 322 324 325 329 328 326 324 324 323 323 326 319 308 307 309 309 308 308 308 308 307 307 307 307 307 306 306 306 306 305 304 305 304 303 303 303 303 303 303 303 303 303 302 302 302 302 302 302 302 302 302 302 301 301 301 302 302 302 301 301 301 301 300 299 299 299 299 298 297 296 295 294 294 296
310 306 308 310 310 312 312 313 317 321 319 318 326 316 311 335 347 328 315 316 320 317 316 320 320 323 327 328 329 328 326 324 324 319 308 305 308 308 308 308 308 308 307 307 307 307 307 307 307 307 307 307 306 306 305 305 305 304 304 303 303 303 303 303 303 303 303 302 302 302 302 302 302 302 302 302 302 302 302 302 302 302 302 301 301 301 300 300 299 299 299 298 298 298 297 296 295
308 309 313 315 315 314 312 314 317 321 325 321 318 314 311 324 338 330 318 319 323 320 317 318 319 318 318 321 326 328 326 324 325 318 305 304 308 308 308 308 308 308 308 308 308 308 308 308 308 308 308 308 307 307 306 305 305 305 305 304 304 304 304 304 304 304 304 303 303 303 302 302 302 302 302 302 302 302 302 302 302 302 302 302 302 301 301 301 300 300 299 299 298 298 298 298 297
309 314 316 316 321 320 318 325 323 319 325 322 316 314 312 316 326 326 323 322 323 322 318 317 317 314 314 317 319 321 322 321 322 320 314 308 307 308 309 308 309 309 308 309 308 308 308 308 308 308 308 308 307 306 305 305 305 305 305 305 304 304 304 304 304 304 304 304 304 303 303 303 303 302 302 302 302 302 302 302 302 302 302 301 301 301 301 301 301 300 300 300 299 299 299 298 298
311 318 323 323 330 329 325 333 327 321 325 317 312 313 313 320 325 320 322 321 318 320 320 319 318 316 316 316 315 318 322 324 320 320 322 312 305 307 309 308 308 307 307 308 307 307 307 306 307 307 306 306 305 305 304 304 304 304 305 305 305 305 305 304 305 305 304 304 304 304 304 303 303 303 303 302 302 302 302 302 302 302 302 302 301 301 301 301 301 301 301 300 300 300 300 299 298
314 319 324 327 329 324 325 332 322 316 322 315 310 313 318 325 323 318 321 320 317 318 318 321 322 320 318 315 317 321 322 322 320 319 322 314 305 306 307 306 307 306 306 306 305 306 306 305 305 305 305 304 304 304 304 304 304 304 304 304 304 304 304 304 304 304 304 304 304 304 304 304 303 303 303 303 302 302 302 302 302 302 302 302 302 301 301 301 301 301 301 301 300 300 300 300 299
315 313 317 325 325 319 321 327 321 316 323 322 312 314 326 325 314 315 318 315 314 314 315 318 319 318 318 315 317 321 319 319 321 320 317 310 306 307 307 305 305 305 305 305 305 305 305 305 305 304 304 304 304 304 303 303 303 303 304 303 304 304 304 304 304 304 304 304 304 304 304 304 304 303 303 303 303 302 302 302 302 302 302 302 302 301 301 301 301 301 301 301 301 301 300 300 300
314 310 316 321 320 323 322 316 317 319 321 327 320 319 332 323 312 318 318 313 312 311 313 314 313 315 318 316 316 319 319 319 320 321 316 308 305 306 306 305 305 305 305 305 305 305 304 304 304 304 304 303 303 303 303 303 302 302 303 302 303 303 303 303 303 303 303 303 304 304 304 304 303 304 303 303 303 303 302 302 302 302 302 302 302 302 302 301 301 301 301 301 301 301 300 300 299
312 312 315 312 310 320 323 312 314 316 318 328 323 321 331 322 315 322 318 312 313 311 312 313 313 318 318 316 317 319 319 317 317 318 315 308 305 306 306 306 305 305 305 305 304 304 304 304 304 303 304 303 303 303 302 302 301 301 301 301 301 301 301 302 302 302 302 302 303 303 303 303 303 303 303 303 303 303 303 302 302 302 302 302 302 302 302 302 301 301 301 301 301 301 300 300 299
313 314 311 309 309 314 319 320 325 323 323 331 324 320 330 326 322 323 317 312 314 313 313 314 316 319 317 316 318 319 318 318 317 316 312 305 305 306 306 305 306 305 305 305 305 305 304 304 304 303 304 303 303 303 302 301 300 300 300 300 300 300 300 301 301 301 301 301 302 302 302 302 302 302 303 303 303 303 303 303 302 302 302 302 302 302 302 301 301 301 301 301 301 301 300 300 300
310 313 307 310 315 316 319 322 327 323 320 328 330 325 323 326 330 325 315 315 317 314 314 316 317 317 317 317 317 318 318 318 318 317 314 308 305 306 307 306 306 306 305 305 305 305 304 304 304 303 303 304 303 303 301 300 300 299 300 299 299 300 300 300 300 300 300 300 300 301 301 301 301 301 301 302 302 302 302 302 302 302 302 302 302 302 302 301 301 301 301 301 301 301 300 300 300
307 310 307 309 316 319 320 317 318 324 322 324 332 331 325 330 338 330 318 319 318 314 316 318 319 319 321 321 320 320 320 319 316 317 317 309 304 306 307 306 307 306 306 306 305 305 304 303 302 302 302 302 301 301 300 299 299 299 299 299 299 299 299 299 299 299 299 299 299 299 299 299 299 299 300 300 300 301 301 301 301 302 302 302 302 302 301 301 301 301 301 301 301 300 300 300 300
311 316 313 313 313 311 314 313 314 323 327 325 326 331 338 339 334 327 322 321 316 315 319 320 320 322 323 324 324 323 322 321 318 320 318 308 304 307 307 306 306 305 305 305 304 303 302 301 301 300 300 299 299 299 299 299 299 299 299 299 299 299 299 299 299 299 299 298 298 298 298 298 298 298 298 298 299 299 299 299 300 300 300 300 300 301 301 301 301 300 300 300 300 300 300 300 300
311 317 316 319 317 315 320 318 314 315 321 326 323 323 336 335 323 320 319 316 314 315 318 320 320 322 322 323 324 323 322 321 320 322 317 307 305 307 306 306 305 304 305 304 302 302 301 300 299 299 299 299 299 299 299 299 299 299 299 298 298 298 298 298 298 298 298 298 298 298 298 298 297 297 297 297 298 298 298 298 298 298 298 298 299 299 299 300 300 300 300 300 300 300 299 299 299
Wind_Speed
2 3 3 1 4 5 3 4 1 2 4 3 1 1 1 1 1 3 2 1 1 2 3 3 1 1 1 2 5 5 4 4 5 4 2 4 7 5 2 2 4 5 5 7 9 11 14 13 12 12 13 14 14 13 14 14 15 15 15 15 15 15 15 15 15 15 16 16 16 16 17 17 17 18 19 19 19 19 18 18 18 17 18 19 19 19 19 20 22 21 19 17 15 14 12 12 15
4 4 2 1 5 3 1 3 2 2 5 2 2 2 1 2 3 3 4 3 3 4 3 2 2 1 1 1 3 1 2 3 5 3 2 8 8 4 2 2 4 5 5 7 8 12 15 13 12 13 12 13 13 13 13 14 14 15 15 15 15 15 15 16 16 16 16 17 17 16 17 17 17 17 18 19 18 19 19 18 18 18 18 18 18 19 19 20 22 23 19 17 18 17 13 12 14
5 4 3 2 3 2 1 3 2 2 3 2 3 2 0 2 2 5 6 5 6 4 1 1 2 2 3 3 1 1 3 4 2 2 2 9 6 3 1 3 4 6 6 7 8 12 15 13 12 12 12 11 12 12 13 14 14 14 14 14 15 15 16 16 16 16 17 17 17 17 17 17 18 18 18 19 19 19 19 18 18 18 18 18 18 18 20 20 22 23 22 18 18 20 18 13 13
5 3 3 3 2 3 4 3 2 4 2 3 2 4 1 5 6 5 6 6 6 1 1 0 1 1 3 1 2 1 3 3 2 2 3 9 6 1 1 3 5 7 6 7 9 11 14 13 12 11 11 11 11 12 12 13 14 14 14 14 14 15 16 16 16 16 16 17 17 17 17 19 19 19 19 19 19 19 19 19 19 19 19 18 18 17 18 20 20 21 21 19 17 19 20 16 15
3 2 2 3 3 1 3 3 2 4 2 3 2 4 3 5 6 5 5 6 4 2 2 2 1 2 1 3 2 1 4 2 2 3 5 7 5 1 1 4 6 7 6 7 8 11 14 12 9 9 10 11 10 11 12 13 13 13 13 14 14 15 15 15 15 16 16 17 17 17 18 20 20 19 20 20 19 19 18 19 19 19 19 19 20 18 17 19 20 19 21 20 18 18 19 18 16
3 3 3 4 3 1 3 2 2 2 3 4 3 3 4 5 6 6 3 4 3 2 3 2 1 1 1 3 1 3 4 2 2 4 5 5 3 1 3 5 7 6 5 7 8 11 13 10 8 8 10 10 10 11 11 12 13 13 13 14 14 14 15 15 15 16 16 17 18 18 18 19 20 19 20 19 19 19 18 18 19 19 19 19 20 20 17 18 19 19 20 20 19 18 18 19 18
3 3 3 5 3 2 4 3 3 1 1 3 4 4 6 6 5 6 3 2 3 4 2 1 1 2 2 2 1 2 3 3 4 5 5 4 2 3 4 5 5 4 5 7 9 10 10 9 9 9 10 10 10 10 11 12 13 13 13 13 14 14 14 15 16 17 17 17 18 18 19 19 19 19 18 18 18 19 18 18 18 19 19 19 19 20 18 17 18 18 20 20 17 17 17 17 19
5 3 1 4 3 4 4 3 2 2 1 0 3 5 6 7 5 6 5 3 1 2 1 2 1 2 4 2 1 3 3 4 3 5 5 2 3 3 4 4 4 4 5 7 8 9 8 9 11 11 10 10 10 10 11 12 13 13 13 13 13 14 15 16 17 17 17 18 18 18 19 19 18 17 17 17 17 18 18 18 18 18 18 18 17 18 19 17 17 17 19 20 17 16 17 15 16
5 3 1 3 2 3 3 2 1 2 1 1 2 3 5 6 6 6 5 3 2 2 2 3 2 2 4 3 2 4 2 5 5 5 4 3 4 4 4 3 4 5 6 7 6 7 8 9 11 12 12 11 11 11 12 12 13 13 13 13 13 14 15 16 16 17 17 18 18 17 18 18 17 18 17 17 17 17 17 18 19 18 17 17 17 16 18 18 16 17 17 19 17 15 17 16 15
4 4 2 2 3 3 3 0 0 1 2 2 2 4 5 4 4 4 5 4 2 2 4 3 2 3 3 3 3 3 4 8 7 7 5 5 4 4 3 3 5 6 6 7 6 7 8 9 10 12 13 12 12 12 13 13 13 12 13 13 13 14 15 16 16 16 17 17 17 16 17 18 18 18 17 17 17 17 17 19 18 17 17 17 17 15 17 18 17 17 17 17 17 16 16 17 15
3 4 3 3 4 2 2 2 2 2 2 2 2 5 5 3 3 1 3 3 2 2 2 1 1 4 1 3 4 1 7 10 9 9 7 5 4 3 3 4 6 7 8 8 7 8 9 9 10 12 12 13 13 13 13 13 13 12 12 13 14 14 15 16 16 16 16 16 17 16 16 18 19 18 17 17 17 17 17 17 16 16 17 16 17 16 16 17 18 17 17 17 17 16 15 17 15
3 3 4 4 3 3 3 4 4 3 3 2 2 5 4 4 3 2 3 3 2 2 4 3 2 2 0 4 4 2 8 11 9 9 7 4 3 2 3 5 7 10 10 10 9 8 9 9 10 11 12 14 14 13 13 13 13 12 12 13 14 14 15 16 15 15 16 16 17 17 17 18 18 18 17 16 17 17 16 16 16 15 16 16 16 16 16 17 17 16 16 17 16 15 15 16 15
3 2 5 3 2 3 3 4 3 2 3 4 4 4 3 4 2 5 5 3 2 2 5 5 3 2 1 4 2 2 7 10 9 9 6 3 2 2 4 6 8 9 9 9 9 8 9 9 10 10 12 14 15 13 13 13 12 12 13 14 14 14 14 16 16 15 16 16 17 18 18 17 17 17 17 17 18 17 16 17 17 15 16 16 15 15 15 16 16 14 15 16 16 14 14 16 16
2 3 5 2 2 4 5 3 2 3 3 5 4 3 3 2 4 5 5 3 4 4 4 4 5 2 2 3 3 3 7 11 11 9 5 2 1 2 4 5 6 5 5 6 7 8 9 9 10 10 12 15 15 14 13 13 12 11 13 14 15 15 14 16 16 15 16 16 18 19 20 18 14 16 17 19 20 18 17 17 16 15 15 14 14 14 13 14 14 13 13 15 15 14 13 15 16
2 2 5 4 2 2 4 2 3 4 4 5 4 4 3 2 4 3 4 5 6 5 1 1 4 2 3 3 4 6 11 14 12 9 5 2 2 3 4 3 4 4 5 5 5 8 8 9 10 10 13 14 15 15 14 13 11 11 13 14 16 17 15 15 16 15 16 17 19 21 22 18 13 15 17 19 21 20 18 17 16 15 14 14 13 13 11 11 12 12 12 13 14 13 13 14 15
3 4 5 3 2 1 3 2 4 3 4 5 3 5 4 4 3 2 4 4 3 3 1 3 4 3 4 6 6 7 13 16 11 9 5 3 3 3 3 2 4 5 6 6 6 7 8 9 10 11 13 14 15 16 15 13 11 11 12 14 16 17 15 15 16 15 16 18 20 22 22 17 13 16 17 19 21 21 19 17 18 16 16 16 13 11 9 10 10 10 11 12 13 13 12 13 13
3 4 4 2 3 3 3 4 4 4 4 5 3 4 6 5 3 1 1 3 2 3 2 5 3 3 5 5 5 5 13 15 12 10 8 6 5 4 4 3 6 7 6 6 6 7 8 9 10 11 13 14 14 16 14 13 12 12 13 14 16 16 15 16 16 15 17 18 20 22 22 17 15 16 17 19 21 21 20 18 18 18 19 19 14 9 7 9 9 9 10 11 11 11 11 11 11
4 3 3 1 4 4 4 5 5 4 3 6 5 6 7 3 4 1 2 2 3 4 5 5 5 7 9 6 4 6 14 16 14 13 10 8 7 7 6 6 7 7 7 7 7 8 9 10 11 12 13 13 14 16 14 12 13 12 13 15 16 16 16 16 16 16 17 19 20 22 22 17 15 17 18 19 20 21 21 19 18 18 18 18 15 9 6 6 8 9 10 10 11 10 9 10 12
4 3 3 3 5 4 3 4 4 3 4 7 5 5 5 5 5 2 1 5 4 4 7 5 6 9 11 9 6 10 16 17 15 14 11 9 8 9 9 9 9 9 8 8 8 9 10 10 12 12 13 13 14 15 13 13 13 13 14 15 16 16 16 16 16 17 18 19 20 22 22 17 15 17 18 18 20 21 22 20 18 17 16 17 16 11 6 3 6 8 10 10 10 11 11 11 13
2 4 2 5 5 3 2 3 3 4 5 8 4 3 4 4 3 2 3 5 5 6 6 3 6 9 10 9 8 12 15 16 15 14 11 9 10 10 11 11 11 10 9 9 9 9 10 11 12 12 12 13 14 15 13 14 14 14 14 15 16 16 16 17 16 17 18 19 19 21 22 17 15 17 18 19 21 21 22 22 18 15 14 17 17 12 7 3 7 8 8 10 10 11 13 13 13
2 4 3 6 3 3 2 3 2 3 5 8 4 3 2 3 2 2 3 2 7 7 8 7 8 9 9 8 8 13 13 13 13 12 11 11 11 12 12 13 12 10 9 9 10 10 11 11 12 12 12 13 15 15 14 15 15 14 14 15 16 16 17 17 17 17 18 19 20 21 21 18 16 17 19 20 21 22 22 22 20 15 13 16 16 11 11 7 6 9 7 10 13 13 14 14 14
3 1 2 4 3 3 2 2 2 0 5 5 5 4 3 1 1 3 6 5 6 6 7 9 9 8 8 5 6 10 9 11 11 10 11 12 13 13 13 13 12 10 9 11 12 11 11 11 12 11 12 13 15 15 14 15 15 14 14 15 16 16 17 18 18 17 17 19 20 21 21 19 16 18 19 20 21 22 23 22 21 17 12 13 15 12 11 10 3 7 6 7 12 16 17 15 16
3 1 2 1 3 3 1 1 3 2 6 4 5 3 1 2 4 4 7 10 10 6 5 8 8 9 9 4 6 7 7 9 10 11 13 13 14 14 12 11 11 10 11 12 12 10 10 11 11 11 11 13 14 15 15 15 15 14 14 15 16 16 17 18 18 17 17 18 19 20 21 19 17 18 19 20 22 23 23 23 22 19 13 12 14 14 12 10 8 2 4 3 5 14 20 17 16
5 1 1 2 2 3 2 1 2 4 6 4 3 0 1 2 4 2 5 13 11 9 7 6 5 6 8 5 6 7 8 9 11 13 14 14 14 13 11 10 11 11 12 12 10 9 10 10 10 11 11 14 14 14 15 15 14 13 14 15 16 16 16 18 18 17 16 17 19 19 20 19 16 16 18 19 21 23 23 23 23 21 16 13 13 13 13 10 9 7 3 2 3 6 15 15 14
5 3 2 1 2 1 0 2 3 2 2 1 2 0 5 6 2 4 10 13 9 9 8 6 4 3 6 5 6 6 7 10 12 13 14 14 14 13 12 12 12 12 12 11 9 8 9 9 10 10 12 13 14 14 15 15 14 13 14 15 16 16 16 17 18 17 16 17 18 19 20 19 15 15 17 18 19 21 22 22 23 22 18 15 12 11 12 12 10 9 7 6 6 5 8 9 11
2 4 3 2 1 1 1 2 2 1 1 0 1 4 6 4 2 5 12 12 8 7 6 4 3 5 6 5 6 6 6 10 12 13 15 14 13 14 13 12 12 13 13 10 8 8 7 8 9 10 12 13 13 13 14 14 13 13 14 15 16 16 15 16 16 16 16 17 17 18 19 19 15 13 15 17 18 20 21 21 21 22 20 17 14 12 12 12 12 11 11 11 9 8 7 8 9
3 6 5 4 2 2 1 1 4 3 2 2 2 6 6 3 3 4 9 7 3 4 5 4 5 7 7 5 6 7 8 11 14 14 13 12 11 12 12 11 12 12 12 11 8 7 7 8 9 10 12 13 13 13 14 14 13 13 14 15 15 15 14 14 15 15 16 17 18 17 18 19 15 12 13 15 16 17 19 19 20 22 20 17 14 12 12 11 10 10 11 10 9 10 8 6 6
5 7 5 4 3 3 1 1 4 2 2 4 5 5 5 3 2 7 9 5 2 5 5 4 6 7 6 5 6 6 9 14 16 13 13 13 12 12 12 11 11 10 10 10 7 7 7 8 8 9 11 12 12 13 13 14 13 13 14 14 14 13 14 14 14 14 16 17 18 18 17 18 17 12 11 13 14 15 17 17 18 20 20 17 14 11 11 11 9 8 8 7 7 9 9 5 5
4 4 4 3 6 3 2 2 2 1 1 4 3 4 4 1 6 11 8 4 2 4 4 4 5 6 5 6 6 5 10 14 13 14 17 17 14 13 13 11 10 9 8 7 7 7 8 8 8 9 10 11 11 11 12 13 13 13 13 12 11 12 13 13 13 13 15 16 17 19 18 17 17 15 11 11 12 14 14 15 17 18 19 18 15 12 11 12 11 9 6 5 6 7 8 7 8
1 2 5 1 6 4 3 1 1 2 1 3 2 4 5 6 11 12 7 1 3 2 4 4 4 5 5 6 6 6 10 12 13 17 20 17 15 14 13 12 10 9 7 6 8 8 7 7 8 9 10 10 10 10 10 11 10 10 10 8 8 10 11 12 12 13 13 14 15 17 19 17 17 16 13 11 11 12 13 14 15 16 17 18 18 16 12 11 13 13 8 5 5 5 7 8 10
1 1 2 2 2 3 4 2 1 2 1 3 4 2 5 8 10 9 5 2 5 4 6 5 5 5 5 6 6 6 9 12 15 18 18 16 15 14 14 12 11 10 7 7 8 6 7 7 7 8 9 9 9 9 9 9 9 8 7 6 6 8 9 10 11 12 13 13 14 15 17 18 17 16 15 13 11 10 12 13 14 14 14 16 18 19 17 13 12 13 10 7 7 6 7 8 10
2 1 2 4 0 4 7 3 1 0 3 4 4 3 6 7 9 7 3 3 5 5 7 6 5 6 5 6 6 6 8 12 14 15 16 15 14 14 14 13 12 10 8 7 7 6 7 6 7 7 7 7 7 7 8 7 7 7 7 7 7 9 9 9 10 11 12 13 13 13 15 16 16 16 15 14 12 9 10 12 13 12 12 13 16 17 18 17 13 11 11 10 9 8 6 6 8
4 2 1 3 0 3 5 2 1 2 2 4 0 3 4 4 6 7 4 3 4 5 7 7 6 6 6 6 5 6 7 8 9 12 14 13 13 14 14 13 12 10 8 7 7 7 7 6 7 7 6 6 6 6 6 6 6 6 7 7 9 10 10 10 10 11 12 12 12 12 13 13 14 15 15 14 14 11 8 9 10 11 10 11 12 14 15 16 15 12 11 10 10 9 7 5 6
4 3 0 3 1 2 3 2 1 3 1 3 2 4 7 7 7 8 6 0 3 6 8 8 6 6 6 5 5 5 6 6 6 8 9 8 9 11 13 13 11 9 7 7 7 7 7 7 7 7 7 7 6 6 6 6 6 6 7 8 9 10 10 11 11 12 12 12 11 11 11 11 11 13 14 14 14 12 9 7 7 9 9 9 9 11 12 12 13 13 12 11 10 10 9 7 6
2 1 1 2 3 2 3 2 1 4 2 4 2 5 11 12 9 9 8 3 5 8 8 7 6 5 6 5 5 5 5 6 6 5 4 4 6 8 10 11 9 8 7 7 7 7 8 8 8 8 7 7 7 8 7 7 7 7 7 8 8 9 9 10 11 12 12 12 12 11 10 10 9 10 12 12 13 13 12 9 6 6 7 8 7 8 9 10 10 10 10 11 11 10 9 8 7
6 4 3 2 3 4 5 4 2 2 3 5 5 6 9 12 11 9 8 5 7 9 7 6 6 5 6 5 5 5 4 6 6 3 3 2 3 5 7 9 8 7 6 7 7 8 9 8 8 8 7 7 8 8 8 9 9 9 9 9 8 8 8 9 9 10 10 11 11 11 11 10 9 9 10 10 11 12 12 11 9 7 6 7 7 7 8 8 8 8 8 8 9 9 9 8 7
5 4 2 3 3 4 5 2 4 2 2 5 4 4 9 12 12 10 7 3 5 7 7 7 7 5 6 5 5 5 5 6 4 5 5 4 4 4 6 7 7 7 6 7 7 8 8 8 9 8 7 8 9 9 9 9 10 10 10 10 10 9 8 8 7 8 9 10 11 10 10 10 10 10 9 9 9 9 10 11 10 8 7 6 7 8 7 6 5 5 5 5 5 6 7 7 6
3 4 2 3 3 5 4 1 4 5 3 4 3 6 11 10 10 9 4 3 5 7 7 7 8 6 6 6 6 6 5 4 3 5 5 5 6 6 6 6 6 6 5 6 6 6 7 7 8 8 7 8 9 9 9 10 10 10 11 11 11 11 10 8 8 7 8 10 10 10 10 10 10 10 10 10 8 8 8 9 9 9 9 8 7 6 6 5 4 3 3 3 3 4 5 5 5
3 3 2 2 3 4 5 2 5 6 3 4 5 7 11 10 8 8 3 4 5 5 7 7 6 6 6 6 6 6 5 4 3 4 4 5 7 7 7 7 7 7 6 6 7 6 6 7 8 8 8 9 9 10 10 11 10 11 12 13 13 13 12 10 10 9 8 9 9 10 10 10 10 10 10 11 10 9 8 7 8 8 8 8 7 7 6 5 4 3 4 4 3 2 2 3 4
3 2 2 3 3 3 3 3 6 5 1 4 5 5 7 8 6 6 3 3 4 4 4 6 5 6 6 6 5 5 5 5 5 5 4 3 6 8 9 8 8 8 8 8 8 8 8 7 8 8 9 9 10 10 10 11 11 11 12 13 14 14 14 12 12 10 9 9 9 9 10 10 10 10 10 11 11 10 9 8 8 7 7 7 7 7 7 6 5 4 4 4 3 3 2 2 2
2 2 3 2 2 1 4 4 7 6 1 1 4 4 4 5 5 6 5 3 4 5 3 5 5 4 4 5 4 4 5 6 5 5 5 4 5 7 8 8 8 9 9 9 8 8 8 8 9 9 10 10 10 10 10 11 11 12 13 14 14 15 15 14 13 11 9 10 10 10 10 11 11 11 10 11 11 10 10 10 9 9 8 8 8 7 6 6 5 5 5 5 4 3 4 3 2
3 2 4 3 2 2 3 5 6 4 3 1 4 4 3 5 4 5 5 6 5 5 4 5 6 6 5 5 5 5 4 5 5 5 6 6 6 7 8 8 9 10 9 8 8 8 9 9 10 10 11 11 11 11 11 11 12 13 13 14 15 15 16 15 13 12 12 12 12 12 12 12 12 12 11 11 11 11 10 10 10 10 9 9 9 9 7 6 6 5 4 5 5 5 6 6 5
1 2 4 4 3 2 2 5 4 2 1 3 3 4 2 5 5 6 5 6 7 6 5 6 6 5 5 5 5 5 5 5 5 6 6 7 7 8 9 9 9 9 8 7 8 9 9 10 10 11 12 11 11 11 11 12 13 14 14 15 16 17 18 17 15 14 15 14 14 15 14 13 14 14 14 13 12 12 11 10 10 10 10 10 10 11 10 9 9 7 6 6 6 6 8 9 9
2 2 4 4 3 2 2 3 3 1 3 4 5 4 1 3 5 7 5 4 7 7 6 7 6 6 6 5 6 6 6 6 5 6 6 8 9 9 9 9 8 9 9 8 9 10 10 11 12 12 12 12 11 11 11 12 14 14 15 16 17 18 19 19 18 17 16 16 16 16 15 15 15 15 15 14 14 13 12 11 11 11 12 11 11 11 11 11 11 11 10 9 8 7 8 9 10
3 2 3 2 3 3 3 4 2 2 1 3 6 4 2 4 6 6 4 2 4 6 4 5 6 5 6 6 6 6 7 6 6 6 6 8 9 9 8 8 8 8 9 10 11 11 12 13 13 13 12 12 11 11 12 13 14 15 16 17 18 19 19 20 20 19 18 18 18 17 16 16 15 15 15 15 14 14 13 13 13 13 13 13 13 13 12 12 12 12 12 12 12 11 10 10 11
2 2 3 3 4 3 3 4 2 3 3 2 6 4 2 4 5 4 3 2 2 3 2 4 5 6 5 5 6 6 6 5 5 5 6 7 7 6 7 8 9 9 10 11 12 12 13 14 14 13 12 12 12 11 13 14 14 15 16 17 19 20 20 20 21 22 21 20 20 19 18 17 16 15 14 14 15 14 14 14 14 14 15 15 15 15 15 14 14 13 13 13 13 14 14 14 14
0 3 4 4 4 3 3 3 2 3 2 3 5 3 1 2 5 3 2 2 5 5 2 4 4 3 3 3 5 5 5 5 4 4 6 6 5 5 6 7 9 9 9 9 9 10 11 12 13 13 12 12 12 13 14 15 14 14 15 17 19 20 21 21 22 24 23 23 23 22 21 20 19 17 16 15 15 14 14 15 15 15 16 16 16 16 16 16 16 16 16 16 16 16 16 16 17
2 3 3 2 3 3 3 4 4 3 2 4 4 4 1 1 4 5 4 5 5 6 5 5 5 3 3 3 4 4 4 4 4 4 5 6 6 5 7 8 10 11 10 11 11 10 10 10 10 11 11 12 13 14 16 16 14 14 15 16 18 20 21 22 23 24 25 24 24 24 23 23 22 20 19 17 16 15 15 15 16 16 17 17 17 17 18 18 18 18 18 19 19 19 19 19 19
4 3 3 2 2 3 1 3 2 1 3 2 2 3 1 4 6 6 6 6 6 7 7 7 7 6 5 3 3 4 4 4 3 3 4 5 5 6 8 9 11 12 12 12 11 11 11 11 11 11 12 12 13 14 15 14 14 13 14 15 17 19 20 21 23 24 25 24 25 25 25 24 24 23 22 21 19 17 16 16 17 17 18 18 19 19 19 19 19 20 20 21 21 21 22 22 23
2 2 3 2 2 3 1 4 2 2 3 1 2 3 2 3 4 5 7 7 6 7 6 6 7 7 6 4 4 5 5 3 3 2 3 3 4 6 8 10 11 13 13 12 11 11 12 12 12 13 13 13 13 14 14 14 14 13 13 14 15 16 18 19 21 22 23 24 24 24 25 25 25 25 25 24 23 21 20 19 18 19 19 20 20 21 21 21 22 22 22 23 23 23 23 23 25
1 3 3 2 3 3 2 3 2 2 3 3 3 2 3 1 1 4 7 6 4 3 3 3 3 4 3 3 3 4 2 1 2 2 3 3 5 7 9 11 12 14 14 14 14 14 14 14 14 15 16 16 17 18 17 17 17 16 15 14 14 15 16 18 19 20 21 22 23 24 24 25 25 26 26 25 25 24 23 22 21 21 21 21 21 22 23 23 23 24 25 25 26 25 25 25 26
2 2 3 2 2 4 2 2 4 2 2 3 2 3 4 1 3 5 3 2 2 3 3 1 0 2 2 2 2 2 1 1 2 3 3 4 6 8 9 11 13 14 16 16 16 17 16 16 16 17 17 18 19 20 20 20 20 20 19 18 18 18 18 18 19 19 20 21 22 22 23 24 24 25 25 25 25 25 24 24 24 24 24 23 23 23 24 24 25 26 27 27 28 28 27 28 28
0 1 0 1 3 5 4 1 0 3 1 3 1 2 5 3 2 5 5 1 2 3 3 1 1 2 4 3 1 2 1 1 1 1 2 3 6 7 9 11 13 14 15 15 16 16 16 16 17 18 19 20 21 21 22 22 23 23 23 22 21 21 21 21 21 21 20 20 21 21 22 22 22 23 24 24 24 24 25 25 25 25 26 26 26 26 26 26 26 27 28 29 30 29 29 31 31
1 1 2 2 2 4 3 1 3 4 1 4 2 2 5 2 1 4 2 2 5 5 3 2 1 1 3 2 3 3 3 4 3 2 2 2 4 6 9 11 12 13 13 14 14 15 15 16 18 20 21 22 22 22 23 24 25 25 25 24 23 23 23 23 23 23 23 23 23 23 23 23 22 22 22 23 23 23 23 24 24 25 25 26 26 27 27 27 27 28 29 30 31 30 31 32 32
1 1 1 1 2 1 2 2 1 2 1 4 4 4 3 3 3 3 4 7 8 6 4 2 3 3 3 4 5 5 5 5 3 2 2 3 4 6 8 10 11 11 12 13 13 14 16 18 19 20 21 21 20 21 22 23 24 24 24 24 24 24 24 25 25 25 26 27 27 26 26 25 25 24 24 24 24 23 23 23 24 24 24 25 25 26 26 26 27 28 29 30 31 30 31 33 33
2 2 2 2 2 3 1 1 2 1 1 3 4 4 3 5 5 5 8 9 9 7 5 5 6 6 6 5 5 6 6 6 3 0 2 3 4 6 7 9 10 11 12 13 14 16 18 19 20 21 21 21 21 21 22 23 23 23 23 24 25 26 26 27 27 28 28 29 29 28 28 28 28 27 26 25 25 25 25 25 24 24 25 25 25 26 26 26 27 27 28 28 30 30 30 33 33
1 1 1 1 0 2 1 1 1 3 2 2 1 3 5 6 4 6 7 7 8 8 7 7 7 6 6 6 6 6 6 6 4 2 2 2 3 6 8 10 12 14 15 15 17 18 19 20 21 22 23 24 24 24 24 24 24 24 25 26 26 26 27 27 27 28 28 28 28 28 28 28 28 28 28 27 27 27 26 26 26 26 26 26 26 27 26 27 27 27 27 28 28 28 29 31 32
3 3 2 3 2 2 2 2 2 2 2 3 3 3 7 6 3 5 5 5 7 9 8 8 7 7 6 6 6 6 6 6 4 3 4 2 3 7 10 12 15 17 18 18 18 19 21 22 23 24 25 26 25 25 25 25 25 26 26 27 27 27 27 27 27 28 28 28 27 27 26 26 27 28 27 27 27 27 27 27 27 27 27 27 28 28 28 27 26 27 27 28 28 28 28 30 31
Wind_Direction
135 118 128 147 1 15 33 70 65 333 71 78 350 91 269 235 134 98 118 247 337 276 233 227 247 130 146 178 189 195 171 172 175 142 211 200 141 136 104 45 356 349 358 356 342 338 340 345 349 349 348 348 350 348 346 344 343 341 340 340 340 339 339 338 336 337 337 337 336 335 335 332 331 327 324 323 323 322 321 320 315 310 308 305 303 303 300 288 276 275 277 274 272 266 262 254 234
120 117 108 49 7 25 211 82 93 353 56 71 295 159 212 353 52 134 195 218 213 235 231 238 324 314 359 107 165 176 230 233 181 167 192 150 137 140 108 19 348 351 360 350 336 340 343 345 346 348 348 348 349 346 344 342 341 339 338 339 339 339 340 339 338 338 338 339 337 336 335 333 331 327 325 322 322 321 320 320 312 307 304 300 299 298 296 293 283 274 274 273 271 265 258 256 237
113 120 77 35 19 47 79 42 83 85 84 200 267 256 181 78 150 193 213 212 218 237 290 317 333 300 45 44 205 147 252 280 179 158 129 156 157 153 127 358 350 346 347 339 331 340 345 346 344 345 350 350 347 344 342 340 339 337 336 338 339 340 340 339 339 340 340 342 340 338 336 334 331 327 327 324 323 322 319 316 308 303 302 297 293 292 292 293 289 275 269 273 273 267 257 256 249
111 102 47 40 45 29 53 51 99 116 141 202 232 279 227 156 181 207 221 224 231 241 9 73 317 248 105 184 234 131 243 282 218 147 143 185 191 175 64 360 342 337 335 328 327 337 344 345 342 343 352 355 347 340 339 338 338 336 336 337 338 339 339 340 340 340 341 342 342 341 339 336 333 330 329 328 326 324 320 315 308 303 299 296 288 286 289 288 290 278 273 275 270 268 258 254 258
98 61 34 62 73 25 76 76 68 98 180 187 164 269 230 173 180 197 229 247 250 174 171 125 257 270 127 215 199 157 229 247 240 167 149 185 188 205 334 339 330 328 315 317 322 330 341 345 341 348 358 357 344 334 335 336 336 335 335 336 337 339 339 341 341 341 342 341 342 343 342 338 335 334 332 331 327 323 320 316 310 306 303 303 294 286 289 287 287 280 279 275 259 264 260 252 253
80 70 64 66 75 116 86 66 62 79 220 170 154 236 209 189 184 183 227 272 292 256 202 143 192 308 324 254 177 191 202 136 169 168 158 169 176 248 298 321 324 318 302 312 317 325 341 350 351 2 4 359 342 333 334 334 336 334 334 336 336 338 339 341 342 343 342 342 343 344 343 340 337 334 332 330 327 325 322 318 314 310 309 311 302 291 289 287 284 279 279 273 255 259 262 253 247
65 78 48 61 39 41 87 111 143 160 266 163 169 185 189 207 190 160 185 274 317 294 247 206 153 90 273 270 330 222 161 151 155 166 182 177 214 254 281 309 321 315 307 310 315 324 342 360 6 6 6 3 348 336 335 334 335 335 335 336 337 338 340 342 343 343 343 344 344 344 346 344 339 334 332 328 327 327 324 320 314 311 309 310 305 293 288 284 282 279 278 271 255 256 263 258 251
59 83 36 78 48 27 95 108 150 177 11 119 177 178 187 199 178 150 182 209 215 256 256 266 85 109 273 320 260 243 147 169 156 159 180 201 230 245 268 295 333 333 321 317 318 324 339 359 4 4 5 6 356 342 337 337 337 337 337 337 337 340 343 344 344 345 346 347 346 345 347 344 339 334 331 328 326 325 324 321 314 310 308 307 304 296 291 284 278 278 278 271 258 252 259 262 260
57 52 36 79 83 35 65 64 49 175 249 308 156 194 200 187 168 153 187 236 223 198 238 235 150 170 286 339 256 262 177 172 152 155 182 220 221 234 263 299 338 335 326 323 321 321 336 348 353 360 3 4 2 356 347 345 342 339 339 337 340 344 345 345 346 348 348 348 347 345 345 344 339 337 334 328 325 324 323 322 318 312 308 304 300 294 291 285 277 276 277 272 259 249 254 259 265
45 24 90 77 82 55 23 36 320 165 225 233 203 214 209 184 158 156 180 228 209 164 241 218 141 223 280 305 255 274 193 178 165 176 198 205 212 245 275 315 318 323 323 318 318 318 329 336 343 354 359 359 360 3 357 352 348 344 342 340 344 346 345 347 348 350 349 348 348 345 344 344 341 338 336 331 326 323 323 325 322 315 311 306 300 291 285 280 275 274 273 270 260 249 250 254 260
39 351 94 76 70 106 207 199 253 241 247 266 259 249 219 171 119 157 180 213 212 168 226 125 160 233 287 281 254 225 174 177 185 189 192 199 228 272 307 325 312 315 315 313 316 314 319 326 334 346 354 353 352 0 0 353 351 353 349 346 346 346 347 348 350 350 350 349 349 346 344 343 340 339 339 335 330 328 326 325 324 319 314 310 304 294 284 276 270 271 269 267 260 250 247 249 254
76 337 65 82 104 173 193 166 213 230 287 286 235 262 219 137 112 207 194 207 219 210 233 185 186 188 99 281 265 214 172 181 198 190 190 213 253 313 344 333 321 312 308 306 308 308 309 316 326 339 347 346 345 354 359 352 351 358 358 353 348 347 349 349 352 354 352 351 350 347 343 340 337 340 342 339 338 335 330 325 322 316 309 306 305 295 285 278 268 267 263 260 257 250 248 247 251
108 142 85 81 127 139 144 145 198 185 302 250 209 241 159 130 204 212 189 217 191 167 249 212 160 106 209 266 288 246 188 191 195 187 204 251 289 345 339 331 326 310 299 296 296 299 300 308 320 332 340 341 341 348 356 352 348 358 2 359 354 352 351 351 356 359 356 354 352 349 345 339 338 345 346 344 348 344 333 330 329 320 309 304 304 297 283 275 264 261 258 254 253 251 250 244 246
127 155 102 100 84 118 145 130 178 162 259 244 213 205 146 159 217 196 161 207 235 187 239 210 144 116 240 267 308 275 208 196 190 196 225 273 284 335 324 323 331 315 296 289 285 287 292 303 314 327 335 334 337 344 350 350 348 356 2 1 358 356 354 354 359 2 1 360 357 355 350 346 347 354 351 349 357 353 339 335 335 329 326 320 311 299 280 272 260 256 255 249 250 251 249 241 240
135 137 88 113 79 88 170 167 153 161 237 227 200 173 150 234 173 172 174 182 252 221 203 221 144 171 213 188 244 243 207 195 191 205 223 235 250 318 305 297 323 314 301 293 276 277 286 299 313 324 326 328 335 341 342 346 350 354 1 360 359 357 355 356 359 2 3 2 360 358 356 354 356 0 359 357 2 0 348 343 342 336 341 340 324 306 282 273 266 259 254 244 244 245 246 239 238
118 109 69 99 130 130 187 189 137 145 241 219 196 139 139 271 182 190 223 157 262 265 156 216 182 207 190 180 230 229 200 193 191 203 211 221 243 294 287 265 287 285 285 288 277 278 287 300 314 317 318 324 332 338 336 343 351 355 1 359 359 357 355 357 359 1 2 3 0 359 359 359 4 6 7 3 3 4 355 350 347 338 338 336 328 319 290 270 265 260 250 237 237 239 237 232 236
58 80 70 80 154 175 190 178 164 166 228 222 223 157 157 271 270 223 275 111 240 267 244 232 224 222 199 209 258 221 189 188 188 199 205 215 238 269 272 257 264 266 273 286 284 290 300 306 313 310 315 322 329 335 332 342 352 356 0 358 359 358 357 357 358 1 2 3 0 1 3 3 8 9 11 7 4 7 359 350 348 339 334 334 329 325 301 275 261 257 249 234 234 236 229 229 235
51 81 97 142 179 188 182 180 190 160 181 203 206 183 159 218 252 251 346 322 276 271 271 259 269 257 236 253 270 190 182 184 190 198 203 212 237 260 265 264 262 261 268 283 289 301 310 310 310 308 314 320 327 333 333 345 351 354 360 358 358 359 360 358 358 1 1 4 1 1 5 5 7 10 12 8 4 7 3 353 348 340 338 346 345 331 307 278 256 251 247 238 234 233 232 233 234
81 106 100 212 199 190 189 185 191 168 184 186 190 188 169 202 207 136 253 275 306 272 274 273 272 274 264 263 229 185 180 186 195 200 205 217 242 260 266 269 263 258 267 281 289 303 310 310 311 309 314 319 326 332 337 347 347 351 358 357 359 1 1 1 360 360 1 4 1 2 6 6 7 11 12 11 10 9 6 0 351 344 347 1 5 354 328 267 238 246 247 244 236 230 233 232 231
102 107 108 236 207 176 220 207 213 228 185 159 181 195 185 218 183 131 214 265 293 242 250 247 244 261 264 260 213 187 185 191 199 203 211 229 254 264 267 272 268 265 275 286 291 302 309 312 313 311 314 319 326 332 340 347 346 349 355 356 360 2 1 4 2 358 1 4 2 2 6 7 9 13 14 18 19 11 8 7 0 351 352 4 16 20 2 292 223 229 241 239 234 235 232 226 225
80 99 165 230 181 119 213 221 270 251 160 151 170 154 195 236 190 197 166 258 286 244 230 212 220 239 246 263 216 192 192 196 201 207 221 243 262 268 271 275 272 272 281 289 295 305 313 314 313 314 316 320 327 334 342 347 345 347 354 357 360 2 1 4 4 358 360 3 3 3 4 8 12 15 18 22 20 11 8 9 9 3 356 360 11 25 15 348 235 212 218 222 224 233 229 220 214
68 38 201 213 149 111 232 248 328 130 116 117 140 154 219 238 232 215 165 210 250 235 225 205 214 225 219 242 204 190 197 204 210 221 237 252 265 273 276 274 265 268 280 292 301 308 311 310 312 317 317 321 329 336 342 345 343 345 353 357 359 1 0 3 4 359 359 3 3 3 3 7 14 19 21 24 19 13 8 7 12 12 1 353 0 14 23 16 339 210 200 204 212 220 220 216 208
90 288 332 4 154 143 208 314 355 98 107 123 160 189 282 25 291 234 187 224 233 233 222 188 208 213 195 181 161 176 200 216 230 241 250 257 266 272 271 265 263 274 286 297 305 306 304 304 313 318 318 323 331 338 342 343 341 344 351 354 356 358 358 1 2 359 359 3 4 3 4 4 11 20 24 24 19 16 10 5 11 16 9 352 358 17 33 36 35 137 188 172 195 214 214 212 205
88 165 331 24 124 148 168 104 42 93 120 174 175 92 281 210 275 312 233 240 240 247 237 209 236 210 178 155 156 184 206 223 241 250 258 261 266 270 268 268 273 281 286 298 308 301 296 302 314 318 320 327 333 339 341 342 341 344 351 352 354 355 356 360 359 357 358 2 5 4 4 3 9 19 25 24 20 19 14 7 9 16 19 8 1 17 33 41 53 77 124 143 99 193 203 205 204
78 149 205 43 60 169 225 58 44 77 124 181 82 306 246 218 226 312 263 250 244 240 237 244 264 178 169 174 186 199 213 231 246 256 261 262 265 266 266 270 273 274 279 295 304 294 292 301 314 319 323 330 335 339 341 342 343 347 353 352 352 353 355 360 358 356 357 2 5 5 5 4 7 17 23 24 22 22 18 12 10 14 22 23 10 12 33 42 53 80 104 107 87 116 170 192 201
128 139 146 108 62 309 14 25 332 281 240 91 32 286 272 248 266 281 260 257 255 233 228 233 188 173 198 206 211 211 220 238 249 257 262 265 264 260 261 264 264 271 280 287 289 286 289 301 314 320 324 333 337 339 341 343 346 350 353 353 352 351 356 2 0 358 360 2 4 5 5 4 5 13 20 24 25 23 22 19 13 11 18 29 27 17 28 41 47 73 105 112 110 124 148 183 197
114 112 108 99 102 298 64 269 283 286 266 195 207 273 284 305 324 268 261 278 274 200 221 220 171 196 218 219 233 226 226 241 249 255 261 260 250 248 252 253 260 273 278 276 280 282 286 300 312 320 325 333 336 338 342 344 347 350 351 352 351 351 356 2 4 3 4 5 4 4 4 4 5 9 18 24 28 26 24 23 17 12 13 25 38 31 29 39 42 58 93 115 121 125 140 175 190
109 111 83 39 7 308 249 241 278 305 265 193 184 262 290 344 298 240 256 297 60 153 204 209 178 210 226 229 247 240 237 247 253 252 247 243 236 240 246 251 261 270 272 272 275 276 284 299 308 318 327 332 336 337 340 343 345 347 348 349 350 351 354 358 4 5 7 9 6 3 3 3 3 8 16 21 28 30 28 27 22 17 13 19 35 45 44 45 39 43 70 99 113 116 131 164 173
124 110 88 2 0 347 270 261 267 341 247 187 164 303 299 220 234 244 259 302 60 138 189 206 199 225 239 243 254 249 246 250 253 244 237 238 239 241 246 252 257 260 269 272 266 270 284 295 302 315 326 330 334 336 337 340 341 343 345 346 348 350 350 351 356 0 6 10 7 4 4 1 1 5 11 16 25 32 32 30 28 24 20 20 28 41 55 60 59 50 44 74 105 114 124 145 158
134 42 102 25 2 2 309 307 308 334 259 153 105 318 285 245 244 251 263 291 105 155 229 236 237 253 256 254 257 256 253 248 242 238 237 240 243 241 244 249 249 254 265 261 259 269 279 288 300 311 320 324 328 330 332 336 338 340 343 345 344 345 347 346 349 354 359 6 7 4 3 2 360 2 6 10 21 32 35 36 36 35 30 27 30 34 44 62 71 66 48 58 93 105 114 127 144
69 16 89 32 6 290 309 329 3 342 312 64 81 254 268 268 265 268 276 161 151 213 248 252 261 265 263 260 257 261 263 251 242 240 240 245 247 242 242 243 240 243 247 250 257 264 270 280 296 306 316 320 321 325 327 330 335 338 340 342 339 336 339 342 345 348 352 358 2 2 2 1 360 360 4 6 15 29 38 43 46 45 40 38 39 37 37 46 65 76 70 70 78 83 99 114 130
34 86 309 349 61 271 304 303 91 142 287 18 85 228 271 268 273 296 330 132 163 221 252 263 269 265 267 265 258 259 267 264 255 247 247 252 251 243 240 239 235 237 243 252 257 255 263 274 285 298 308 311 318 324 325 329 332 334 336 336 333 329 329 333 339 343 347 351 355 358 358 0 1 1 2 4 10 22 35 43 49 51 48 46 48 44 40 39 45 67 78 80 85 87 90 102 120
354 76 232 292 300 295 314 319 86 99 295 331 166 233 279 279 289 319 1 116 168 235 259 267 265 266 267 263 267 263 267 282 273 252 250 254 252 244 239 236 234 237 249 259 261 260 266 272 277 289 294 298 309 314 321 328 331 334 333 332 329 328 326 326 332 334 338 345 350 354 354 357 1 2 3 3 5 12 22 33 42 50 53 53 55 52 47 41 38 48 65 77 89 100 105 104 107
317 30 150 259 247 260 304 307 344 30 344 270 258 234 252 270 291 306 315 204 193 241 255 259 262 271 273 269 275 269 265 282 274 254 251 253 249 242 236 233 232 239 255 266 269 271 276 279 280 285 288 292 298 302 310 314 321 328 328 331 330 328 327 327 329 328 330 336 341 348 350 354 357 1 6 5 4 5 8 14 27 41 49 51 57 59 55 50 45 45 52 61 76 91 101 107 105
183 137 123 307 310 249 261 264 296 14 341 251 253 257 262 274 280 283 286 243 210 239 248 256 262 269 279 284 280 273 269 264 257 244 238 245 244 235 226 222 227 241 258 269 273 277 282 287 286 287 290 293 295 298 303 304 308 315 317 322 325 327 330 330 330 327 328 329 331 337 340 346 350 354 2 7 6 3 2 2 7 20 33 40 49 58 58 55 55 55 53 54 63 76 80 87 96
146 159 151 206 286 270 255 258 275 2 321 266 228 247 273 287 287 284 282 242 211 242 259 263 264 271 277 283 280 275 270 259 246 203 179 213 227 219 215 215 228 245 261 270 275 281 287 292 293 294 297 296 297 298 300 301 302 305 310 312 317 327 333 332 331 327 327 328 329 331 332 334 337 341 351 2 7 4 0 359 359 357 5 23 33 40 44 45 49 55 58 57 60 68 70 68 69
127 121 133 208 231 274 265 262 303 337 328 273 238 265 281 286 289 293 290 238 210 243 257 260 258 261 265 266 272 266 255 257 233 182 177 189 203 208 215 224 236 248 260 271 279 286 290 292 291 298 304 296 298 301 300 299 296 298 304 309 315 323 329 331 330 326 323 324 326 327 329 330 328 330 337 347 360 4 1 357 357 352 347 359 14 21 26 27 33 43 55 67 71 70 67 63 58
106 126 163 257 227 256 262 222 313 356 21 282 331 329 292 287 292 301 307 189 210 231 229 247 249 245 257 253 256 260 261 275 246 204 201 200 207 211 224 237 246 257 266 270 279 289 288 287 290 299 304 296 299 304 299 297 297 296 299 305 312 315 320 321 320 322 318 316 320 322 325 330 328 327 328 333 342 352 357 355 354 352 347 347 350 358 7 10 13 24 33 48 71 75 74 63 50
80 121 156 260 252 275 296 336 332 360 21 279 346 343 297 295 295 303 316 192 236 241 215 222 222 229 252 247 246 262 272 273 256 240 229 218 219 218 229 241 249 263 269 268 273 283 286 287 293 300 303 300 303 302 299 300 301 297 296 299 303 306 310 308 308 312 312 313 317 317 322 327 327 328 327 329 332 334 338 343 347 346 343 344 341 338 344 353 357 5 12 11 17 37 74 75 54
73 113 146 240 293 344 301 316 333 331 254 258 321 324 292 306 316 315 317 230 276 302 241 227 210 214 236 243 242 237 239 237 240 262 276 253 223 220 232 243 252 261 266 271 274 280 288 293 297 303 304 303 304 301 298 301 300 294 292 294 296 299 302 303 304 305 304 308 315 317 322 324 324 328 328 328 329 328 325 326 331 333 332 334 334 333 335 339 342 341 341 343 347 345 352 29 39
344 153 146 214 301 313 250 293 331 327 293 264 332 344 307 326 345 312 313 324 317 343 323 261 258 259 266 290 280 239 225 215 215 246 267 258 226 224 238 245 253 260 266 276 281 284 291 298 302 303 304 304 303 301 297 295 292 290 289 290 291 294 298 303 305 308 306 305 311 317 319 320 321 325 327 326 325 324 323 320 318 321 322 319 319 321 321 322 328 329 322 314 312 315 320 321 309
304 216 168 169 196 232 289 330 349 8 35 350 19 39 302 317 341 287 308 351 324 330 331 272 280 308 309 299 289 278 262 231 214 228 250 253 231 226 238 242 250 260 271 283 288 291 294 299 303 302 304 306 304 301 295 289 287 287 286 286 289 293 297 305 310 314 315 312 311 312 315 317 317 320 323 322 321 321 320 319 315 314 314 312 312 310 305 301 300 302 300 294 289 289 291 291 280
292 219 166 138 125 121 4 7 24 49 344 313 40 92 250 320 332 280 306 338 315 321 323 291 292 304 295 272 266 276 271 255 243 244 253 250 232 225 235 243 250 263 280 290 289 292 296 302 306 305 306 308 309 305 296 290 287 287 286 285 289 291 291 301 311 313 312 311 309 308 311 313 313 316 319 318 319 318 317 315 314 312 309 307 306 305 306 304 298 292 286 276 269 269 274 280 278
253 189 127 109 91 95 72 53 51 293 277 321 12 84 141 306 285 275 306 336 328 335 324 308 302 286 282 270 260 257 252 246 240 246 253 244 236 237 244 253 259 270 285 289 289 297 300 304 307 306 308 312 314 313 304 297 293 290 290 287 288 289 288 296 307 308 306 306 304 306 308 309 310 311 312 315 316 314 313 311 311 310 308 307 302 300 303 303 302 301 298 291 280 268 260 263 267
260 190 124 107 110 131 120 76 25 307 333 322 330 18 90 266 277 305 351 49 345 340 342 335 327 304 286 271 263 257 252 247 230 231 243 241 241 248 260 271 277 280 287 288 292 298 301 303 306 305 310 317 320 321 317 310 302 296 292 288 289 292 294 298 304 305 306 306 305 306 307 308 308 306 305 307 310 310 310 309 308 307 308 310 305 299 297 296 296 297 299 297 294 290 279 267 261
262 147 90 57 73 87 80 71 43 7 49 240 292 352 56 271 287 323 24 83 242 273 316 326 312 304 288 272 272 267 264 263 246 243 260 265 264 269 278 283 289 296 298 297 299 301 302 303 303 305 313 322 323 328 327 323 315 302 295 292 292 297 301 303 305 307 310 311 308 310 311 310 309 307 303 300 300 303 304 304 306 306 307 309 306 304 301 299 297 295 294 292 289 289 289 286 282
254 80 54 40 39 54 64 46 67 59 10 251 275 335 48 300 287 245 185 180 187 190 244 280 286 306 303 290 288 277 278 287 286 286 291 298 301 300 303 307 319 332 333 332 333 328 323 316 309 310 318 326 328 331 331 330 326 312 304 300 297 300 305 306 307 310 315 316 314 315 315 313 311 309 307 302 298 297 298 299 301 302 304 304 304 306 306 305 304 300 296 291 287 285 286 287 286
68 64 54 50 354 21 38 355 34 86 266 263 282 315 61 204 263 237 236 250 196 168 180 199 214 240 264 298 308 304 306 314 327 328 317 335 352 351 354 355 358 5 6 8 8 3 358 349 337 333 335 337 334 332 332 333 334 327 319 313 307 306 307 306 306 309 314 317 317 318 317 316 315 313 311 308 307 304 298 295 294 295 297 298 301 303 303 304 304 301 298 295 292 290 288 287 285
63 63 62 64 344 2 7 313 358 165 247 267 310 327 295 226 244 238 245 252 218 196 187 176 186 208 228 262 303 318 321 323 333 338 329 341 355 358 4 8 11 16 18 19 17 12 12 9 1 355 352 348 342 340 342 343 345 342 334 324 318 315 311 308 307 308 313 315 315 316 317 317 317 316 314 313 314 313 304 297 293 291 291 293 295 295 296 298 297 297 296 294 294 293 292 290 287
64 107 97 86 64 50 307 281 311 278 262 283 321 322 283 268 266 231 230 240 227 218 214 193 183 187 203 230 281 305 312 321 317 332 349 344 356 9 15 18 22 28 31 30 28 23 22 21 16 12 11 10 8 8 8 7 6 0 350 340 333 328 323 318 315 313 315 316 316 316 316 316 316 316 317 315 315 314 308 303 297 293 291 290 290 290 291 291 290 290 290 290 290 290 290 288 287
253 180 137 114 136 136 226 243 215 260 278 300 317 293 196 191 304 236 232 253 267 259 255 240 211 205 214 248 301 310 318 9 358 11 12 2 21 29 31 36 38 41 44 45 44 42 40 39 35 32 31 30 29 28 27 24 22 18 12 5 357 349 342 336 331 327 325 324 322 320 318 319 318 317 318 318 317 314 310 307 302 297 295 292 290 289 288 287 286 285 285 285 285 285 284 282 282
234 175 97 59 148 134 134 188 185 195 315 306 286 227 219 203 296 295 305 292 304 337 340 10 302 311 25 47 337 319 314 17 38 43 22 18 40 45 42 45 48 50 53 53 51 50 49 47 45 42 39 36 34 33 32 30 27 24 22 18 12 6 359 353 347 344 341 336 332 329 326 326 324 323 324 323 321 318 314 311 307 303 300 297 294 291 289 288 286 283 282 282 283 283 282 280 279
203 96 100 227 152 119 110 189 291 71 60 283 270 259 298 342 292 312 7 31 275 318 331 345 294 327 57 75 283 260 234 293 342 3 356 16 42 51 49 50 52 54 55 56 54 52 50 47 45 42 40 37 35 34 32 29 26 23 21 19 16 13 9 5 0 357 354 350 347 343 339 337 335 333 331 329 328 325 321 317 313 310 307 303 300 297 294 292 289 285 283 282 283 284 282 280 279
102 110 217 223 128 100 103 106 360 38 40 281 326 290 294 348 259 308 19 192 243 263 270 307 338 65 93 134 225 220 237 275 289 305 339 16 44 52 55 55 56 55 56 58 57 55 53 49 44 40 36 34 34 33 30 25 21 20 20 21 20 17 15 13 10 8 7 4 2 360 355 351 350 346 341 338 335 332 329 326 321 318 315 311 307 304 301 298 294 289 286 285 285 285 282 281 281
125 196 205 91 137 125 47 90 48 23 318 292 314 306 264 204 222 255 210 201 215 232 231 150 137 156 168 204 225 239 259 269 276 352 360 5 41 49 54 59 60 60 59 57 57 56 54 49 44 41 39 38 37 33 27 22 19 20 23 24 24 23 22 21 19 17 16 14 11 8 4 1 359 357 352 348 345 341 338 336 331 327 324 320 316 312 308 304 299 294 292 290 289 287 283 282 283
28 360 345 357 155 165 116 91 154 164 239 278 313 330 282 230 215 194 208 209 191 191 189 168 181 200 205 209 221 238 246 246 242 102 326 332 37 54 59 63 61 60 58 58 61 59 54 49 46 45 43 40 38 33 29 29 28 28 29 29 29 28 27 26 25 23 21 20 17 13 9 6 5 4 0 356 353 350 347 343 340 336 332 329 325 321 317 313 306 301 298 296 295 292 286 285 286
87 49 325 303 140 151 160 354 91 130 154 190 263 314 273 250 211 181 211 220 191 181 175 180 204 215 219 224 219 223 232 238 241 226 259 298 57 71 70 71 68 65 65 68 68 61 55 51 47 43 40 38 37 36 36 39 39 38 37 36 33 31 29 28 26 25 23 20 18 16 12 8 7 7 5 2 359 358 355 351 347 344 341 338 334 331 328 323 316 311 307 304 301 296 290 289 289
163 165 194 182 147 124 119 320 321 98 137 172 156 271 271 259 213 197 225 225 201 191 172 177 208 217 225 236 223 218 226 228 226 226 238 253 69 69 72 76 72 70 72 73 67 59 54 49 44 41 40 40 40 41 43 43 43 42 40 37 34 31 28 25 24 22 20 18 16 14 10 7 7 7 7 6 4 2 1 358 355 352 350 347 343 341 338 333 326 321 317 313 309 303 297 294 291